Flag for United Kingdom Weather past 2 weeks in Durham, England, United Kingdom

Now
50 °F

Passing clouds.


Feels Like: 45 °F
Forecast: 44 / 56 °F
Wind: 13 mph from Northeast

Location: Newcastle


UV Index: 0 (Low)

Visibility: N/A


Pressure: 30.04 "Hg

Humidity: 82%

Dew point: 45 °F

Location of DurhamLocation

Historic Weather in Durham

°F

Durham temperature yesterday

Maximum temperature yesterday: 52 °F (at 2:20 PM)
Minimum temperature yesterday: 27 °F (at 6:20 AM)
Average temperature yesterday: 41 °F

Past Weeks' High & Low Weather Summary

 TemperatureHumidityPressure
High63 °F (Apr 6, 12:20 PM)100% (Apr 6, 4:20 AM)30.42 "Hg (Apr 6, 4:20 AM)
Low27 °F (Apr 19, 6:20 AM)39% (Apr 16, 3:20 PM)29.50 "Hg (Apr 7, 2:50 PM)
Average48 °F76%30.02 "Hg
* Reported Apr 5 10:20 AM — Apr 20 10:50 AM, Durham, Weather by CustomWeather, © 2014

Note: Actual official high and low records may vary slightly from our data, if they occured in-between our weather recording intervals... More about our weather records

Advertising

Historic Weather Conditions — Data for Previous 24 hours

 ConditionsComfort  
Time TempWeatherWind HumidityBarometerVisibility
10:50 AM
Apr 20
50 °FPassing clouds.13 mph82%30.04 "HgN/A
10:20 AM50 °FScattered clouds.13 mph82%30.04 "HgN/A
9:50 AM48 °FPartly sunny.12 mph87%30.04 "HgN/A
9:20 AM46 °FPartly sunny.10 mph87%30.04 "HgN/A
8:50 AM45 °FPartly sunny.10 mph93%30.07 "HgN/A
8:20 AM45 °FScattered clouds.9 mph93%30.07 "Hg6 mi
7:50 AM43 °FPartly sunny.9 mph93%30.07 "Hg6 mi
7:20 AM43 °FPartly sunny.9 mph93%30.07 "Hg6 mi
6:20 AM43 °FPassing clouds.5 mph93%30.07 "Hg6 mi
5:50 AM41 °FPassing clouds.5 mph93%30.07 "Hg6 mi
5:20 AM41 °FPartly cloudy.5 mph100%30.07 "HgN/A
4:50 AM41 °FPartly cloudy.No wind93%30.09 "HgN/A
4:20 AM41 °FPartly cloudy.3 mph93%30.09 "HgN/A
3:20 AM43 °FPassing clouds.2 mph93%30.09 "HgN/A
2:50 AM43 °FPassing clouds.3 mph93%30.09 "HgN/A
2:20 AM43 °FPassing clouds.3 mph93%30.12 "HgN/A
1:50 AM43 °FPassing clouds.5 mph93%30.12 "HgN/A
1:20 AM43 °FPassing clouds.5 mph87%30.12 "HgN/A
12:50 AM43 °FPassing clouds.3 mph93%30.12 "HgN/A
12:20 AM43 °FPassing clouds.3 mph93%30.12 "HgN/A
11:50 PM
Apr 19
45 °FPassing clouds.6 mph93%30.12 "HgN/A
11:20 PM43 °FPassing clouds.5 mph100%30.15 "HgN/A
10:50 PM45 °FPassing clouds.3 mph93%30.15 "HgN/A
10:20 PM43 °FPassing clouds.7 mph100%30.15 "HgN/A
9:50 PM43 °FPassing clouds.6 mph93%30.15 "HgN/A
9:20 PM43 °FPassing clouds.5 mph93%30.15 "HgN/A
8:50 PM45 °FPassing clouds.7 mph87%30.15 "HgN/A
8:20 PM45 °FPassing clouds.9 mph81%30.12 "HgN/A
6:50 PM48 °FPassing clouds.9 mph76%30.12 "HgN/A
5:50 PM50 °FPassing clouds.9 mph71%30.12 "HgN/A
5:20 PM50 °FPassing clouds.10 mph67%30.12 "HgN/A
4:50 PM50 °FPassing clouds.9 mph71%30.15 "HgN/A
4:20 PM52 °FScattered clouds.10 mph62%30.15 "HgN/A
3:50 PM50 °FPassing clouds.12 mph67%30.15 "HgN/A
3:20 PM52 °FPassing clouds.10 mph62%30.15 "HgN/A
2:50 PM52 °FPassing clouds.10 mph62%30.15 "HgN/A
2:20 PM52 °FPassing clouds.10 mph67%30.15 "HgN/A
1:20 PM50 °FPassing clouds.9 mph62%30.18 "HgN/A
12:50 PM50 °FPassing clouds.8 mph62%30.18 "HgN/A
12:20 PM50 °FPassing clouds.9 mph62%30.18 "HgN/A
11:50 AM48 °FScattered clouds.10 mph66%30.18 "HgN/A
11:20 AM48 °FScattered clouds.9 mph62%30.18 "HgN/A
Weather by CustomWeather, © 2014

See weather overview